Content
SEND FEEDBACK

Daily
Averages
Monthly
Summary
United States of America

TAMUNING, GUAM


Home > North America > United States > Guam
Elevation: 76 meters     Latitude: 13 29N     Longitude: 144 47E

WEATHER
 
SELECT A DAY
Number of Records: 341,964;   Date Range: 1/1/95 - 7/26/14
 
SHARE

PRINT THIS DATA

[ ← Previous Day ]
WEATHER ALMANAC - 19 MAY, 2013
[ Next Day → ]
[ °F ]   °C
Weather ElementAverageHighLow
Temperature27.8 °C30 °C (12:55 pm)24.8 °C (4:55 am)
Dewpoint23.7 °C24.1 °C (11:55 am)22.9 °C (10:55 am)
Humidity78.2 %90 % (3:55 am)67 % (10:55 am)
Barometer1011.2 hPa1012.5 hPa (8:55 am)1009.8 hPa (2:55 pm)
Wind Speed13 km/h20.4 km/h (4:55 pm)
Weather ElementAverage
Visibility16.1 km
Wind DirectionESE (102.4 °)

Weather ElementTotal
Precipitation---
Cooling Degree Days9.1 (Base 18.3)
Growing Degree Days17.4 (Base 10)
Averaged from 33 records on 19 May, 2013
WEATHER CONDITIONS BREAKOUT
WIND DIRECTION BREAKOUT
WEATHER BY HOUR - 19 MAY, 2013
[ °F ]   °C
Local TimeTemperatureDewpointHumidityBarometerVisibilityWind DirectionWind SpeedGust SpeedPrecipitationEventsConditions
1:55 AM25.6 °C23.4 °C88 %1011.2 hPa16.1 kmENE (70°)7.4 km/hClear
2:55 AM25.6 °C23.5 °C88 %1010.5 hPa16.1 kmCalmClear
3:55 AM25.2 °C23.5 °C90 %1010.5 hPa16.1 kmESE (110°)7.4 km/hClear
4:55 AM24.8 °C23.1 °C90 %1010.8 hPa16.1 kmESE (110°)5.6 km/hPartly Cloudy
5:55 AM25.1 °C23.3 °C90 %1011.2 hPa16.1 kmENE (70°)9.3 km/hPartly Cloudy
6:55 AM26.1 °C23.9 °C88 %1011.9 hPa16.1 kmENE (60°)9.3 km/hClear
7:55 AM27.5 °C23.7 °C80 %1012.2 hPa16.1 kmEast (80°)13 km/hClear
8:24 AM29 °C24 °C74 %1012.2 hPa16.1 kmENE (60°)14.8 km/hMostly Cloudy
8:55 AM28.5 °C23.7 °C75 %1012.5 hPa16.1 kmEast (90°)11.1 km/hScattered Clouds
8:56 AM28 °C24 °C79 %1012.5 hPa16.1 kmEast (90°)11.1 km/hMostly Cloudy
9:02 AM28 °C23 °C74 %1012.5 hPa16.1 kmVariable9.3 km/hScattered Clouds
9:04 AM29 °C23 °C70 %1012.5 hPa16.1 kmENE (60°)13 km/hMostly Cloudy
9:07 AM29 °C24 °C74 %1012.5 hPa16.1 kmEast (100°)11.1 km/hScattered Clouds
9:12 AM28 °C23 °C74 %1012.5 hPa16.1 kmEast (100°)9.3 km/hMostly Cloudy
9:55 AM28.6 °C23.7 °C75 %1012.2 hPa16.1 kmSE (130°)13 km/hScattered Clouds
10:55 AM29.5 °C22.9 °C67 %1011.9 hPa16.1 kmEast (100°)11.1 km/hPartly Cloudy
11:55 AM29.6 °C24.1 °C72 %1011.5 hPa16.1 kmSE (130°)16.7 km/hPartly Cloudy
12:55 PM30 °C24.1 °C70 %1010.8 hPa16.1 kmESE (120°)18.5 km/hPartly Cloudy
1:55 PM29.9 °C23.9 °C70 %1010.2 hPa16.1 kmESE (120°)18.5 km/hPartly Cloudy
2:55 PM29.8 °C24 °C71 %1009.8 hPa16.1 kmSE (140°)18.5 km/hClear
3:38 PM29 °C24 °C74 %1010.2 hPa16.1 kmESE (120°)16.7 km/hMostly Cloudy
3:47 PM29 °C24 °C74 %1010.2 hPa16.1 kmEast (100°)13 km/hScattered Clouds
3:55 PM29.3 °C23.9 °C72 %1009.8 hPa16.1 kmESE (120°)18.5 km/hScattered Clouds
4:16 PM29 °C24 °C74 %1009.8 hPa16.1 kmESE (110°)16.7 km/hMostly Cloudy
4:26 PM29 °C24 °C74 %1009.8 hPa16.1 kmSE (130°)14.8 km/hMostly Cloudy
4:55 PM28.8 °C23.6 °C73 %1010.2 hPa16.1 kmSE (140°)20.4 km/hPartly Cloudy
5:55 PM27.9 °C23.7 °C78 %1010.5 hPa16.1 kmESE (120°)16.7 km/hPartly Cloudy
6:55 PM27.2 °C23.8 °C82 %1011.2 hPa16.1 kmSE (130°)14.8 km/hScattered Clouds
7:55 PM27.1 °C23.8 °C82 %1011.5 hPa16.1 kmSE (130°)14.8 km/hClear
8:55 PM26.8 °C23.6 °C83 %1011.9 hPa16.1 kmSE (130°)16.7 km/hClear
9:55 PM26.6 °C24.1 °C86 %1011.9 hPa16.1 kmSE (130°)14.8 km/hClear
10:55 PM26.4 °C23.6 °C84 %1011.9 hPa16.1 kmSE (140°)13 km/hClear
11:55 PM26.1 °C23.5 °C85 %1011.2 hPa16.1 kmSE (140°)9.3 km/hClear
Hourly data recorded from PGUA, located 0 kilometers away from Tamuning, Guam







STORIES FROM OUR PARTNERS